Weather History for KPMP - May, 2014

Change the Weather History Date:

Thursday, May 1, 2014

  Actual Average Record
Temperature  
Mean Temperature 83 °F -  
Max Temperature 88 °F 85 °F 99 °F (1971)
Min Temperature 79 °F 68 °F 55 °F (1952)
Cooling Degree Days 18    
Growing Degree Days 33 (Base 50)    
Moisture  
Dew Point 72 °F    
Average Humidity 72    
Maximum Humidity 85    
Minimum Humidity 61    
Precipitation  
Precipitation 0.00 in - - ()
Sea Level Pressure  
Sea Level Pressure 30.01 in    
Wind  
Wind Speed 11 mph (SSE)    
Max Wind Speed 21 mph    
Max Gust Speed 29 mph    
Visibility 10 miles    
Events      
Averages and records for this station are not official NWS values.
T = Trace of Precipitation, MM = Missing Value Source: NWS Daily Summary

Daily Weather History Graph

Daily Weather History Graph

Search for Another Location

Airport or City:

Trip Planner

Search our weather history database for the weather conditions in past years. The results will help you decide how hot, cold, wet, or windy it might be!

Date:

Astronomy

May. 01, 2014 Rise Set
Actual Time 6:43 AM EDT 7:52 PM EDT
Civil Twilight 6:18 AM EDT 8:16 PM EDT
Nautical Twilight 5:49 AM EDT 8:45 PM EDT
Astronomical Twilight 5:20 AM EDT 9:15 PM EDT
Moon 8:34 AM EDT (5/1) 10:18 PM EDT (5/1)
Length of Visible Light 13h 58m
Length of Day
13h 09m
Waxing Crescent, 6% of the Moon is Illuminated
May 1
Waxing Crescent
May 6
First Quarter
May 14
Full
May 21
Last Quarter
May 28
New

Hourly Weather History & Observations

Time (EDT) Temp. Heat Index Dew Point Humidity Pressure Visibility Wind Dir Wind Speed Gust Speed Precip Events Conditions
12:53 AM 80.1 °F 85.1 °F 75.0 °F 85% 30.05 in 10.0 mi ESE 9.2 mph - N/A   Clear
1:53 AM 80.1 °F 84.5 °F 73.9 °F 81% 30.04 in 10.0 mi SE 9.2 mph - N/A   Clear
2:53 AM 80.1 °F 84.2 °F 73.0 °F 79% 30.03 in 10.0 mi SSE 6.9 mph - N/A   Clear
3:53 AM 80.1 °F 84.5 °F 73.9 °F 81% 30.03 in 10.0 mi SSE 6.9 mph - N/A   Clear
4:53 AM 80.1 °F 84.5 °F 73.9 °F 81% 30.01 in 10.0 mi SE 10.4 mph - N/A   Clear
5:53 AM 79.0 °F - 73.0 °F 82% 30.01 in 10.0 mi SSE 6.9 mph - N/A   Partly Cloudy
6:53 AM 80.1 °F 83.8 °F 72.0 °F 76% 30.02 in 10.0 mi SSE 10.4 mph - N/A   Clear
7:53 AM 81.0 °F 85.2 °F 72.0 °F 74% 30.03 in 10.0 mi SSE 12.7 mph - N/A   Scattered Clouds
8:53 AM 82.9 °F 88.8 °F 73.0 °F 72% 30.03 in 10.0 mi SSE 12.7 mph - N/A   Clear
9:53 AM 84.9 °F 91.4 °F 73.0 °F 67% 30.04 in 10.0 mi SSE 12.7 mph - N/A   Partly Cloudy
10:53 AM 86.0 °F 92.2 °F 72.0 °F 63% 30.04 in 10.0 mi SSE 16.1 mph 21.9 mph N/A   Clear
11:53 AM 86.0 °F 92.2 °F 72.0 °F 63% 30.05 in 10.0 mi SSE 17.3 mph 25.3 mph N/A   Clear
12:53 PM 87.1 °F 93.6 °F 72.0 °F 61% 30.04 in 10.0 mi SSE 18.4 mph - N/A   Clear
1:53 PM 87.1 °F 93.6 °F 72.0 °F 61% 30.02 in 10.0 mi SE 20.7 mph 28.8 mph N/A   Clear
2:53 PM 86.0 °F 92.2 °F 72.0 °F 63% 30.00 in 10.0 mi SE 18.4 mph 26.5 mph N/A   Scattered Clouds
3:53 PM 84.9 °F 90.7 °F 72.0 °F 65% 29.97 in 10.0 mi SSE 16.1 mph 24.2 mph N/A   Scattered Clouds
4:53 PM 82.9 °F 88.0 °F 72.0 °F 69% 29.96 in 10.0 mi SSE 13.8 mph - N/A   Mostly Cloudy
5:53 PM 82.0 °F 86.7 °F 72.0 °F 71% 29.97 in 10.0 mi SSE 11.5 mph - N/A   Mostly Cloudy
6:53 PM 82.0 °F 86.7 °F 72.0 °F 71% 29.98 in 10.0 mi SSE 11.5 mph - N/A   Mostly Cloudy
7:53 PM 81.0 °F 84.9 °F 71.1 °F 72% 29.99 in 10.0 mi South 10.4 mph - N/A   Partly Cloudy
8:53 PM 79.0 °F - 69.1 °F 72% 30.00 in 10.0 mi WSW 3.5 mph - N/A   Partly Cloudy
9:53 PM 80.1 °F 83.8 °F 72.0 °F 76% 30.01 in 10.0 mi South 9.2 mph - N/A   Clear
10:53 PM 80.1 °F 83.8 °F 72.0 °F 76% 30.01 in 10.0 mi SSE 6.9 mph - N/A   Clear
11:53 PM 80.1 °F 84.2 °F 73.0 °F 79% 30.01 in 10.0 mi SSE 6.9 mph - N/A   Clear